This is the latest recevied weather packets stored in our database for station/object EA5CEE. If no packets are shown the sender has not sent any weather packets the latest 10 day(s).
| Time | Temp. | Humidity | Pressure | Rain* | Wind** | Luminosity | Snow |
|---|---|---|---|---|---|---|---|
| 1777287622 | 17.78° C | 81% | 1017.5 hPa | 0 mm | - | - | - |
| 1777286723 | 17.78° C | 82% | 1017.5 hPa | 0 mm | - | - | - |
| 1777285820 | 17.78° C | 82% | 1017.8 hPa | 0 mm | - | - | - |
| 1777284920 | 17.78° C | 82% | 1017.9 hPa | 0 mm | - | - | - |
| 1777284015 | 17.78° C | 84% | 1017.8 hPa | 0 mm | - | - | - |
| 1777283114 | 17.22° C | 84% | 1017.7 hPa | 0 mm | - | - | - |
| 1777282213 | 17.22° C | 81% | 1017.5 hPa | 0 mm | - | - | - |
| 1777281313 | 17.22° C | 80% | 1017.6 hPa | 0 mm | - | - | - |
| 1777280491 | 17.22° C | 79% | 1017.4 hPa | 0 mm | - | - | - |
| 1777279511 | 17.22° C | 80% | 1017.4 hPa | 0 mm | - | - | - |
| 1777278610 | 17.22° C | 80% | 1017.4 hPa | 0 mm | - | - | - |
| 1777277709 | 17.22° C | 79% | 1017.3 hPa | 0 mm | - | - | - |
| 1777276808 | 17.22° C | 79% | 1017.4 hPa | 0 mm | - | - | - |
| 1777275906 | 17.22° C | 78% | 1017.3 hPa | 0 mm | - | - | - |
| 1777275004 | 17.22° C | 80% | 1017.2 hPa | 0 mm | - | - | - |
| 1777274100 | 16.67° C | 81% | 1017.3 hPa | 0 mm | - | - | - |
| 1777273259 | 16.11° C | 80% | 1017.4 hPa | 0 mm | - | - | - |
| 1777272356 | 16.11° C | 80% | 1017.4 hPa | 0 mm | - | - | - |
| 1777271457 | 15.56° C | 82% | 1017.3 hPa | 0 mm | - | - | - |
| 1777270571 | 15.56° C | 82% | 1017.2 hPa | 0 mm | - | - | - |
| 1777269662 | 15° C | 84% | 1017.2 hPa | 0 mm | - | - | - |
| 1777268754 | 15° C | 84% | 1017 hPa | 0 mm | - | - | - |
| 1777267852 | 14.44° C | 84% | 1016.9 hPa | 0 mm | - | - | - |
| 1777266951 | 14.44° C | 82% | 1016.8 hPa | 0 mm | - | - | - |
| 1777266051 | 15° C | 82% | 1016.9 hPa | 0 mm | - | - | - |
* Rain latest hour (hover to see other rain measurements)
** Current wind speed in m/s (hover to see current wind gust speed)